Station Historical Data
Daily Summary for June 24, 2017 Units:  English    Metric   Both
« Previous Day
Next Day »
Daily Weekly Monthly Yearly Custom
  High: Low: Average:
Temperature: 75.2 °F 62.1 °F 69.3 °F
Dew Point: 66.7 °F 53.2 °F 60 °F
Humidity: 93% 54% 73%
Wind Speed: 15.0mph 0.0mph 4.7mph
Wind Gust: 23.0mph - -
Wind- - WSW
Pressure: 29.92 in 29.59 in -
Precipitation: 0.00 in    
Historical Graphs
 
 
Tabular Data for June 24, 2017
Time Temperature Dew Point Pressure Wind Wind Speed Wind Gust Humidity Rainfall Rate (Hourly)
00:04 68.8 °F 66.7 °F 29.59 in WSW 3.0 mph 6.0 mph 93% 0.00 in
00:09 68.8 °F 66.7 °F 29.59 in WSW 3.0 mph 6.0 mph 93% 0.00 in
00:14 68.8 °F 66.7 °F 29.59 in WSW 3.0 mph 5.0 mph 93% 0.00 in
00:19 68.8 °F 66.7 °F 29.59 in West 4.0 mph 4.0 mph 93% 0.00 in
00:24 68.8 °F 66.7 °F 29.59 in West 1.0 mph 4.0 mph 93% 0.00 in
00:29 68.8 °F 66.7 °F 29.59 in West 2.0 mph 4.0 mph 93% 0.00 in
00:34 68.8 °F 66.7 °F 29.59 in West 2.0 mph 4.0 mph 93% 0.00 in
00:39 68.8 °F 66.7 °F 29.59 in WNW 2.0 mph 5.0 mph 93% 0.00 in
00:44 68.8 °F 66.7 °F 29.59 in NW 2.0 mph 4.0 mph 93% 0.00 in
00:49 68.7 °F 66.6 °F 29.59 in NW 2.0 mph 3.0 mph 93% 0.00 in
00:54 68.6 °F 66.5 °F 29.59 in WNW 3.0 mph 3.0 mph 93% 0.00 in
00:59 68.6 °F 66.5 °F 29.59 in WNW 1.0 mph 4.0 mph 93% 0.00 in
01:04 68.6 °F 66.5 °F 29.59 in WNW 2.0 mph 4.0 mph 93% 0.00 in
01:09 68.6 °F 66.2 °F 29.59 in WNW 2.0 mph 4.0 mph 92% 0.00 in
01:14 68.7 °F 66.3 °F 29.59 in West 1.0 mph 4.0 mph 92% 0.00 in
01:19 68.7 °F 66.3 °F 29.60 in WNW 2.0 mph 3.0 mph 92% 0.00 in
01:24 68.7 °F 66.3 °F 29.60 in WNW 2.0 mph 4.0 mph 92% 0.00 in
01:29 68.6 °F 66.2 °F 29.60 in West 3.0 mph 4.0 mph 92% 0.00 in
01:34 68.6 °F 66.2 °F 29.60 in West 2.0 mph 4.0 mph 92% 0.00 in
01:39 68.6 °F 66.2 °F 29.61 in West 2.0 mph 4.0 mph 92% 0.00 in
01:44 68.5 °F 65.8 °F 29.61 in West 2.0 mph 5.0 mph 91% 0.00 in
01:49 68.4 °F 65.7 °F 29.61 in WNW 3.0 mph 6.0 mph 91% 0.00 in
01:54 68.2 °F 65.2 °F 29.61 in WNW 2.0 mph 7.0 mph 90% 0.00 in
01:59 68.2 °F 65.2 °F 29.61 in NW 2.0 mph 4.0 mph 90% 0.00 in
02:04 68.1 °F 64.7 °F 29.60 in WNW 3.0 mph 5.0 mph 89% 0.00 in
02:09 68.1 °F 64.4 °F 29.60 in Calm   4.0 mph 88% 0.00 in
02:14 68.0 °F 64.0 °F 29.60 in NW 2.0 mph 7.0 mph 87% 0.00 in
02:19 68.0 °F 63.7 °F 29.61 in WNW 3.0 mph 6.0 mph 86% 0.00 in
02:24 68.0 °F 63.3 °F 29.61 in WNW 2.0 mph 5.0 mph 85% 0.00 in
02:29 68.0 °F 63.3 °F 29.61 in WNW 2.0 mph 5.0 mph 85% 0.00 in
02:34 68.0 °F 63.0 °F 29.62 in WNW 3.0 mph 6.0 mph 84% 0.00 in
02:39 67.9 °F 62.5 °F 29.61 in WNW 3.0 mph 7.0 mph 83% 0.00 in
02:44 67.9 °F 62.5 °F 29.62 in WNW 4.0 mph 7.0 mph 83% 0.00 in
02:49 67.9 °F 62.5 °F 29.62 in West 3.0 mph 7.0 mph 83% 0.00 in
02:54 67.9 °F 62.5 °F 29.62 in WNW 1.0 mph 7.0 mph 83% 0.00 in
02:59 67.9 °F 62.2 °F 29.62 in WNW 3.0 mph 7.0 mph 82% 0.00 in
03:04 67.9 °F 62.2 °F 29.62 in WNW 3.0 mph 5.0 mph 82% 0.00 in
03:09 67.7 °F 62.0 °F 29.62 in WNW 3.0 mph 7.0 mph 82% 0.00 in
03:14 67.7 °F 62.0 °F 29.62 in West 4.0 mph 7.0 mph 82% 0.00 in
03:19 67.6 °F 61.9 °F 29.61 in WNW 2.0 mph 7.0 mph 82% 0.00 in
03:24 67.5 °F 61.5 °F 29.61 in NW 2.0 mph 7.0 mph 81% 0.00 in
03:29 67.4 °F 61.4 °F 29.62 in WNW 3.0 mph 7.0 mph 81% 0.00 in
03:34 67.3 °F 60.9 °F 29.62 in WNW 3.0 mph 6.0 mph 80% 0.00 in
03:39 67.3 °F 60.9 °F 29.62 in West 5.0 mph 5.0 mph 80% 0.00 in
03:44 67.4 °F 60.7 °F 29.62 in West 2.0 mph 5.0 mph 79% 0.00 in
03:49 67.3 °F 60.6 °F 29.62 in WNW 3.0 mph 3.0 mph 79% 0.00 in
03:54 67.1 °F 60.4 °F 29.62 in WNW 2.0 mph 4.0 mph 79% 0.00 in
03:59 67.1 °F 60.4 °F 29.62 in WNW 3.0 mph 5.0 mph 79% 0.00 in
04:04 67.0 °F 60.3 °F 29.63 in West 2.0 mph 5.0 mph 79% 0.00 in
04:09 66.9 °F 60.2 °F 29.63 in West 2.0 mph 5.0 mph 79% 0.00 in
04:14 66.9 °F 60.2 °F 29.63 in WNW 1.0 mph 4.0 mph 79% 0.00 in
04:19 66.7 °F 60.0 °F 29.63 in WNW 1.0 mph 3.0 mph 79% 0.00 in
04:24 66.6 °F 59.5 °F 29.63 in WNW 2.0 mph 4.0 mph 78% 0.00 in
04:29 66.5 °F 59.4 °F 29.63 in NW 2.0 mph 5.0 mph 78% 0.00 in
04:34 66.3 °F 58.9 °F 29.63 in WNW 2.0 mph 5.0 mph 77% 0.00 in
04:39 66.2 °F 58.4 °F 29.64 in WNW 2.0 mph 5.0 mph 76% 0.00 in
04:44 66.1 °F 57.9 °F 29.64 in NW 1.0 mph 5.0 mph 75% 0.00 in
04:49 65.8 °F 57.7 °F 29.64 in NW 4.0 mph 5.0 mph 75% 0.00 in
04:54 65.5 °F 57.4 °F 29.64 in WNW 3.0 mph 5.0 mph 75% 0.00 in
04:59 65.3 °F 57.2 °F 29.65 in WNW 2.0 mph 5.0 mph 75% 0.00 in
05:04 65.0 °F 56.9 °F 29.65 in WNW 2.0 mph 4.0 mph 75% 0.00 in
05:09 64.8 °F 56.7 °F 29.65 in NW 1.0 mph 6.0 mph 75% 0.00 in
05:14 64.7 °F 56.6 °F 29.66 in WNW 3.0 mph 6.0 mph 75% 0.00 in
05:19 64.5 °F 56.4 °F 29.66 in WNW 2.0 mph 4.0 mph 75% 0.00 in
05:24 64.5 °F 56.4 °F 29.66 in West 2.0 mph 4.0 mph 75% 0.00 in
05:29 64.3 °F 56.2 °F 29.66 in West 2.0 mph 3.0 mph 75% 0.00 in
05:34 64.0 °F 55.9 °F 29.66 in Calm   2.0 mph 75% 0.00 in
05:39 63.8 °F 56.1 °F 29.66 in Calm     76% 0.00 in
05:44 63.7 °F 56.0 °F 29.66 in Calm     76% 0.00 in
05:49 63.3 °F 56.0 °F 29.67 in Calm     77% 0.00 in
05:54 63.1 °F 56.1 °F 29.67 in Calm   2.0 mph 78% 0.00 in
05:59 62.6 °F 56.0 °F 29.68 in Calm   2.0 mph 79% 0.00 in
06:04 62.2 °F 56.0 °F 29.68 in Calm     80% 0.00 in
06:09 62.1 °F 56.2 °F 29.68 in Calm     81% 0.00 in
06:14 62.4 °F 56.5 °F 29.68 in Calm     81% 0.00 in
06:19 62.9 °F 56.6 °F 29.69 in Calm     80% 0.00 in
06:24 63.0 °F 56.7 °F 29.69 in Calm     80% 0.00 in
06:29 63.1 °F 56.8 °F 29.69 in Calm     80% 0.00 in
06:34 63.0 °F 56.7 °F 29.69 in Calm     80% 0.00 in
06:39 63.2 °F 57.3 °F 29.70 in Calm     81% 0.00 in
06:44 63.6 °F 57.3 °F 29.69 in Calm     80% 0.00 in
06:49 63.9 °F 57.6 °F 29.70 in Calm   4.0 mph 80% 0.00 in
06:54 64.3 °F 57.6 °F 29.70 in WSW 1.0 mph 2.0 mph 79% 0.00 in
06:59 65.0 °F 57.6 °F 29.70 in WSW 1.0 mph 4.0 mph 77% 0.00 in
07:04 65.3 °F 57.5 °F 29.70 in WSW 2.0 mph 4.0 mph 76% 0.00 in
07:09 65.6 °F 57.8 °F 29.70 in West 2.0 mph 4.0 mph 76% 0.00 in
07:14 65.9 °F 57.7 °F 29.70 in WSW 3.0 mph 4.0 mph 75% 0.00 in
07:19 66.3 °F 57.8 °F 29.70 in WNW 2.0 mph 6.0 mph 74% 0.00 in
07:24 66.6 °F 57.7 °F 29.71 in West 6.0 mph 7.0 mph 73% 0.00 in
07:29 67.0 °F 57.7 °F 29.71 in WNW 3.0 mph 7.0 mph 72% 0.00 in
07:34 67.2 °F 57.5 °F 29.71 in WNW 4.0 mph 7.0 mph 71% 0.00 in
07:39 67.5 °F 57.4 °F 29.71 in West 3.0 mph 7.0 mph 70% 0.00 in
07:44 67.9 °F 57.4 °F 29.71 in West 3.0 mph 6.0 mph 69% 0.00 in
07:49 68.3 °F 57.7 °F 29.71 in West 3.0 mph 8.0 mph 69% 0.00 in
07:54 68.6 °F 57.2 °F 29.72 in WNW 2.0 mph 11.0 mph 67% 0.00 in
07:59 68.7 °F 56.9 °F 29.72 in West 2.0 mph 9.0 mph 66% 0.00 in
08:04 69.0 °F 56.7 °F 29.72 in West 5.0 mph 7.0 mph 65% 0.00 in
08:09 69.1 °F 56.8 °F 29.72 in WNW 4.0 mph 8.0 mph 65% 0.00 in
08:14 69.5 °F 57.2 °F 29.72 in WNW 3.0 mph 8.0 mph 65% 0.00 in
08:19 69.9 °F 57.2 °F 29.72 in WSW 4.0 mph 6.0 mph 64% 0.00 in
08:24 70.1 °F 57.4 °F 29.72 in West 3.0 mph 8.0 mph 64% 0.00 in
08:29 70.4 °F 57.2 °F 29.73 in West 4.0 mph 8.0 mph 63% 0.00 in
08:34 70.6 °F 57.4 °F 29.72 in WNW 4.0 mph 8.0 mph 63% 0.00 in
08:39 70.8 °F 56.7 °F 29.73 in West 5.0 mph 10.0 mph 61% 0.00 in
08:44 71.0 °F 58.2 °F 29.73 in West 2.0 mph 8.0 mph 64% 0.00 in
08:49 71.6 °F 57.4 °F 29.72 in WNW 5.0 mph 7.0 mph 61% 0.00 in
08:54 71.7 °F 56.6 °F 29.73 in West 3.0 mph 7.0 mph 59% 0.00 in
08:59 71.6 °F 57.0 °F 29.73 in WSW 3.0 mph 8.0 mph 60% 0.00 in
09:04 72.3 °F 57.6 °F 29.73 in West 3.0 mph 8.0 mph 60% 0.00 in
09:09 72.6 °F 57.0 °F 29.73 in WSW 5.0 mph 8.0 mph 58% 0.00 in
09:14 72.6 °F 56.0 °F 29.73 in WSW 3.0 mph 9.0 mph 56% 0.00 in
09:19 72.8 °F 55.7 °F 29.74 in West 6.0 mph 8.0 mph 55% 0.00 in
09:24 73.0 °F 56.9 °F 29.74 in West 4.0 mph 9.0 mph 57% 0.00 in
09:29 74.0 °F 56.8 °F 29.74 in West 4.0 mph 9.0 mph 55% 0.00 in
09:34 74.0 °F 56.8 °F 29.74 in West 3.0 mph 10.0 mph 55% 0.00 in
09:39 74.4 °F 57.7 °F 29.74 in West 6.0 mph 10.0 mph 56% 0.00 in
09:44 74.8 °F 57.0 °F 29.73 in SW 5.0 mph 8.0 mph 54% 0.00 in
09:49 74.7 °F 58.5 °F 29.74 in SW 7.0 mph 8.0 mph 57% 0.00 in
09:54 73.3 °F 59.0 °F 29.74 in SW 5.0 mph 9.0 mph 61% 0.00 in
09:59 72.8 °F 59.5 °F 29.74 in SW 5.0 mph 10.0 mph 63% 0.00 in
10:04 72.1 °F 60.1 °F 29.74 in WSW 5.0 mph 10.0 mph 66% 0.00 in
10:09 71.9 °F 59.1 °F 29.74 in WSW 5.0 mph 9.0 mph 64% 0.00 in
10:14 71.3 °F 59.8 °F 29.74 in SW 5.0 mph 12.0 mph 67% 0.00 in
10:19 71.4 °F 60.7 °F 29.74 in SW 3.0 mph 9.0 mph 69% 0.00 in
10:24 71.0 °F 61.1 °F 29.74 in WSW 8.0 mph 11.0 mph 71% 0.00 in
10:29 71.6 °F 61.7 °F 29.75 in SW 5.0 mph 10.0 mph 71% 0.00 in
10:34 72.3 °F 62.4 °F 29.75 in WSW 7.0 mph 12.0 mph 71% 0.00 in
10:39 72.6 °F 62.7 °F 29.75 in West 6.0 mph 12.0 mph 71% 0.00 in
10:44 72.4 °F 64.0 °F 29.75 in WSW 4.0 mph 11.0 mph 75% 0.00 in
10:49 73.0 °F 64.6 °F 29.75 in WSW 6.0 mph 13.0 mph 75% 0.00 in
10:54 72.6 °F 64.6 °F 29.75 in WSW 7.0 mph 15.0 mph 76% 0.00 in
10:59 72.7 °F 64.3 °F 29.76 in WSW 8.0 mph 15.0 mph 75% 0.00 in
11:04 71.9 °F 63.9 °F 29.76 in WSW 8.0 mph 19.0 mph 76% 0.00 in
11:09 71.9 °F 64.3 °F 29.76 in WSW 7.0 mph 19.0 mph 77% 0.00 in
11:14 71.9 °F 63.9 °F 29.76 in WSW 7.0 mph 15.0 mph 76% 0.00 in
11:19 71.4 °F 63.4 °F 29.76 in SW 9.0 mph 17.0 mph 76% 0.00 in
11:24 70.8 °F 63.6 °F 29.76 in SW 9.0 mph 17.0 mph 78% 0.00 in
11:29 71.5 °F 63.5 °F 29.76 in SSE 6.0 mph 14.0 mph 76% 0.00 in
11:34 72.6 °F 64.2 °F 29.76 in WSW 4.0 mph 15.0 mph 75% 0.00 in
11:39 72.7 °F 63.9 °F 29.76 in WSW 6.0 mph 13.0 mph 74% 0.00 in
11:44 72.8 °F 63.6 °F 29.76 in WSW 9.0 mph 13.0 mph 73% 0.00 in
11:49 72.9 °F 63.7 °F 29.76 in SW 7.0 mph 13.0 mph 73% 0.00 in
11:54 73.0 °F 62.6 °F 29.76 in SW 6.0 mph 14.0 mph 70% 0.00 in
11:59 72.6 °F 63.1 °F 29.76 in WSW 6.0 mph 14.0 mph 72% 0.00 in
12:04 72.8 °F 62.8 °F 29.76 in West 9.0 mph 11.0 mph 71% 0.00 in
12:09 73.0 °F 63.8 °F 29.76 in West 11.0 mph 14.0 mph 73% 0.00 in
12:14 73.5 °F 63.9 °F 29.77 in SW 9.0 mph 14.0 mph 72% 0.00 in
12:19 73.3 °F 63.7 °F 29.77 in WSW 11.0 mph 12.0 mph 72% 0.00 in
12:24 73.4 °F 63.8 °F 29.77 in SW 7.0 mph 17.0 mph 72% 0.00 in
12:29 73.4 °F 63.4 °F 29.77 in SW 8.0 mph 17.0 mph 71% 0.00 in
12:34 73.2 °F 63.2 °F 29.77 in SW 9.0 mph 16.0 mph 71% 0.00 in
12:39 73.2 °F 64.0 °F 29.77 in West 7.0 mph 13.0 mph 73% 0.00 in
12:44 73.6 °F 64.0 °F 29.77 in SSW 7.0 mph 14.0 mph 72% 0.00 in
12:49 73.4 °F 64.2 °F 29.77 in SW 8.0 mph 17.0 mph 73% 0.00 in
12:54 73.4 °F 63.8 °F 29.77 in SW 9.0 mph 17.0 mph 72% 0.00 in
12:59 73.5 °F 63.9 °F 29.77 in SW 10.0 mph 16.0 mph 72% 0.00 in
13:04 73.3 °F 62.5 °F 29.78 in WSW 3.0 mph 17.0 mph 69% 0.00 in
13:09 73.9 °F 62.2 °F 29.78 in WSW 10.0 mph 14.0 mph 67% 0.00 in
13:14 73.4 °F 62.2 °F 29.78 in West 10.0 mph 17.0 mph 68% 0.00 in
13:19 73.4 °F 62.2 °F 29.78 in WSW 9.0 mph 17.0 mph 68% 0.00 in
13:24 73.5 °F 63.1 °F 29.78 in WSW 9.0 mph 17.0 mph 70% 0.00 in
13:29 74.0 °F 63.2 °F 29.78 in SW 8.0 mph 18.0 mph 69% 0.00 in
13:34 73.4 °F 63.0 °F 29.78 in SW 9.0 mph 19.0 mph 70% 0.00 in
13:39 73.7 °F 63.3 °F 29.78 in SW 9.0 mph 19.0 mph 70% 0.00 in
13:44 73.4 °F 63.0 °F 29.78 in West 6.0 mph 16.0 mph 70% 0.00 in
13:49 73.9 °F 63.1 °F 29.78 in WSW 9.0 mph 18.0 mph 69% 0.00 in
13:54 73.4 °F 63.0 °F 29.78 in West 10.0 mph 20.0 mph 70% 0.00 in
13:59 74.4 °F 63.6 °F 29.78 in WSW 6.0 mph 15.0 mph 69% 0.00 in
14:04 74.4 °F 62.7 °F 29.79 in WSW 15.0 mph 18.0 mph 67% 0.00 in
14:09 73.6 °F 62.4 °F 29.79 in SW 8.0 mph 21.0 mph 68% 0.00 in
14:14 73.6 °F 62.8 °F 29.79 in SW 12.0 mph 18.0 mph 69% 0.00 in
14:19 74.1 °F 62.9 °F 29.79 in WSW 9.0 mph 18.0 mph 68% 0.00 in
14:24 74.3 °F 63.5 °F 29.79 in SW 8.0 mph 16.0 mph 69% 0.00 in
14:29 74.4 °F 63.1 °F 29.80 in SW 8.0 mph 16.0 mph 68% 0.00 in
14:34 74.0 °F 62.3 °F 29.80 in WSW 8.0 mph 18.0 mph 67% 0.00 in
14:39 74.4 °F 63.6 °F 29.79 in WSW 4.0 mph 14.0 mph 69% 0.00 in
14:44 74.7 °F 63.0 °F 29.80 in SW 8.0 mph 18.0 mph 67% 0.00 in
14:49 73.9 °F 62.7 °F 29.80 in WSW 9.0 mph 19.0 mph 68% 0.00 in
14:54 73.7 °F 62.5 °F 29.80 in WSW 10.0 mph 22.0 mph 68% 0.00 in
14:59 74.3 °F 62.6 °F 29.80 in SW 9.0 mph 15.0 mph 67% 0.00 in
15:04 74.7 °F 63.0 °F 29.80 in WSW 11.0 mph 15.0 mph 67% 0.00 in
15:09 75.0 °F 63.3 °F 29.79 in SW 6.0 mph 15.0 mph 67% 0.00 in
15:14 75.2 °F 62.2 °F 29.79 in WSW 7.0 mph 16.0 mph 64% 0.00 in
15:19 74.9 °F 62.8 °F 29.79 in WSW 8.0 mph 17.0 mph 66% 0.00 in
15:24 74.7 °F 63.0 °F 29.79 in SW 9.0 mph 14.0 mph 67% 0.00 in
15:29 74.7 °F 62.1 °F 29.80 in WNW 7.0 mph 17.0 mph 65% 0.00 in
15:34 73.9 °F 61.8 °F 29.81 in SW 12.0 mph 22.0 mph 66% 0.00 in
15:39 73.7 °F 61.6 °F 29.81 in SW 8.0 mph 18.0 mph 66% 0.00 in
15:44 73.4 °F 61.8 °F 29.81 in WSW 10.0 mph 19.0 mph 67% 0.00 in
15:49 73.2 °F 61.6 °F 29.81 in WSW 10.0 mph 19.0 mph 67% 0.00 in
15:54 73.8 °F 61.7 °F 29.81 in WSW 8.0 mph 18.0 mph 66% 0.00 in
15:59 73.5 °F 61.0 °F 29.82 in WSW 8.0 mph 19.0 mph 65% 0.00 in
16:04 73.3 °F 61.7 °F 29.82 in WSW 10.0 mph 20.0 mph 67% 0.00 in
16:09 73.0 °F 60.5 °F 29.82 in West 6.0 mph 20.0 mph 65% 0.00 in
16:14 73.3 °F 61.7 °F 29.82 in WSW 9.0 mph 20.0 mph 67% 0.00 in
16:19 73.0 °F 60.5 °F 29.82 in SW 13.0 mph 21.0 mph 65% 0.00 in
16:24 72.9 °F 60.9 °F 29.82 in WSW 14.0 mph 21.0 mph 66% 0.00 in
16:29 72.5 °F 60.1 °F 29.82 in West 7.0 mph 21.0 mph 65% 0.00 in
16:34 72.9 °F 60.9 °F 29.82 in West 8.0 mph 17.0 mph 66% 0.00 in
16:39 73.5 °F 61.0 °F 29.83 in WSW 13.0 mph 15.0 mph 65% 0.00 in
16:44 73.1 °F 61.1 °F 29.83 in WSW 9.0 mph 17.0 mph 66% 0.00 in
16:49 73.0 °F 60.5 °F 29.83 in WSW 9.0 mph 17.0 mph 65% 0.00 in
16:54 72.7 °F 61.1 °F 29.83 in WSW 8.0 mph 17.0 mph 67% 0.00 in
16:59 71.6 °F 59.6 °F 29.83 in West 14.0 mph 23.0 mph 66% 0.00 in
17:04 71.3 °F 60.2 °F 29.83 in West 9.0 mph 20.0 mph 68% 0.00 in
17:09 70.9 °F 60.2 °F 29.83 in WSW 2.0 mph 18.0 mph 69% 0.00 in
17:14 70.8 °F 60.1 °F 29.83 in WSW 8.0 mph 18.0 mph 69% 0.00 in
17:19 70.8 °F 60.5 °F 29.84 in WSW 8.0 mph 18.0 mph 70% 0.00 in
17:24 71.0 °F 61.1 °F 29.83 in WSW 8.0 mph 16.0 mph 71% 0.00 in
17:29 71.3 °F 61.0 °F 29.83 in WSW 3.0 mph 13.0 mph 70% 0.00 in
17:34 72.2 °F 60.2 °F 29.83 in West 3.0 mph 17.0 mph 66% 0.00 in
17:39 72.1 °F 61.0 °F 29.83 in WSW 6.0 mph 17.0 mph 68% 0.00 in
17:44 72.3 °F 59.4 °F 29.83 in WSW 7.0 mph 17.0 mph 64% 0.00 in
17:49 71.8 °F 59.8 °F 29.84 in WSW 9.0 mph 20.0 mph 66% 0.00 in
17:54 71.9 °F 61.2 °F 29.84 in WSW 9.0 mph 20.0 mph 69% 0.00 in
17:59 71.6 °F 61.3 °F 29.84 in WSW 4.0 mph 17.0 mph 70% 0.00 in
18:04 71.5 °F 61.6 °F 29.84 in West 5.0 mph 21.0 mph 71% 0.00 in
18:09 71.3 °F 61.4 °F 29.84 in WSW 9.0 mph 21.0 mph 71% 0.00 in
18:14 71.3 °F 61.4 °F 29.85 in WSW 8.0 mph 18.0 mph 71% 0.00 in
18:19 70.8 °F 60.9 °F 29.85 in WSW 9.0 mph 21.0 mph 71% 0.00 in
18:24 70.2 °F 60.4 °F 29.85 in West 9.0 mph 17.0 mph 71% 0.00 in
18:29 69.8 °F 60.8 °F 29.85 in SW 9.0 mph 18.0 mph 73% 0.00 in
18:34 69.6 °F 60.9 °F 29.85 in WSW 6.0 mph 18.0 mph 74% 0.00 in
18:39 69.7 °F 61.0 °F 29.85 in WSW 8.0 mph 18.0 mph 74% 0.00 in
18:44 69.9 °F 61.6 °F 29.85 in WSW 7.0 mph 15.0 mph 75% 0.00 in
18:49 69.8 °F 61.5 °F 29.85 in SW 7.0 mph 15.0 mph 75% 0.00 in
18:54 69.6 °F 61.7 °F 29.85 in WSW 8.0 mph 16.0 mph 76% 0.00 in
18:59 69.5 °F 61.2 °F 29.85 in WSW 7.0 mph 20.0 mph 75% 0.00 in
19:04 69.4 °F 61.5 °F 29.85 in WNW 11.0 mph 15.0 mph 76% 0.00 in
19:09 69.3 °F 59.9 °F 29.86 in West 8.0 mph 15.0 mph 72% 0.00 in
19:14 69.2 °F 57.4 °F 29.86 in West 8.0 mph 15.0 mph 66% 0.00 in
19:19 69.2 °F 56.5 °F 29.86 in West 8.0 mph 16.0 mph 64% 0.00 in
19:24 68.6 °F 55.1 °F 29.86 in West 8.0 mph 20.0 mph 62% 0.00 in
19:29 68.3 °F 55.2 °F 29.85 in West 4.0 mph 10.0 mph 63% 0.00 in
19:34 68.3 °F 55.6 °F 29.86 in NNW 5.0 mph 9.0 mph 64% 0.00 in
19:39 68.6 °F 55.9 °F 29.86 in WSW 5.0 mph 13.0 mph 64% 0.00 in
19:44 68.8 °F 54.8 °F 29.87 in WSW 6.0 mph 14.0 mph 61% 0.00 in
19:49 69.0 °F 54.1 °F 29.87 in WSW 6.0 mph 14.0 mph 59% 0.00 in
19:54 68.8 °F 54.3 °F 29.87 in SW 2.0 mph 10.0 mph 60% 0.00 in
19:59 68.7 °F 53.8 °F 29.87 in SW 6.0 mph 11.0 mph 59% 0.00 in
20:04 68.6 °F 53.7 °F 29.87 in SW 6.0 mph 11.0 mph 59% 0.00 in
20:09 68.4 °F 54.0 °F 29.87 in SW 6.0 mph 11.0 mph 60% 0.00 in
20:14 68.2 °F 53.8 °F 29.87 in WSW 3.0 mph 8.0 mph 60% 0.00 in
20:19 67.8 °F 53.9 °F 29.87 in West 4.0 mph 8.0 mph 61% 0.00 in
20:24 67.5 °F 53.6 °F 29.87 in WSW 5.0 mph 10.0 mph 61% 0.00 in
20:29 67.3 °F 53.4 °F 29.87 in WSW 5.0 mph 9.0 mph 61% 0.00 in
20:34 67.1 °F 53.2 °F 29.88 in WSW 4.0 mph 9.0 mph 61% 0.00 in
20:39 66.9 °F 53.5 °F 29.88 in SW 4.0 mph 8.0 mph 62% 0.00 in
20:44 66.7 °F 53.7 °F 29.87 in SW 3.0 mph 8.0 mph 63% 0.00 in
20:49 66.2 °F 53.7 °F 29.87 in SW 2.0 mph 5.0 mph 64% 0.00 in
20:54 66.0 °F 53.5 °F 29.88 in SW 2.0 mph 6.0 mph 64% 0.00 in
20:59 65.8 °F 54.1 °F 29.88 in Calm   4.0 mph 66% 0.00 in
21:04 65.5 °F 53.8 °F 29.88 in SW 4.0 mph 4.0 mph 66% 0.00 in
21:09 65.7 °F 54.4 °F 29.88 in SW 3.0 mph 5.0 mph 67% 0.00 in
21:14 65.5 °F 54.7 °F 29.88 in SSW 2.0 mph 5.0 mph 68% 0.00 in
21:19 65.3 °F 54.9 °F 29.89 in SSW 2.0 mph 3.0 mph 69% 0.00 in
21:24 65.3 °F 54.9 °F 29.89 in SW 2.0 mph 6.0 mph 69% 0.00 in
21:29 65.2 °F 55.2 °F 29.89 in SW 2.0 mph 6.0 mph 70% 0.00 in
21:34 65.1 °F 55.8 °F 29.89 in SW 2.0 mph 5.0 mph 72% 0.00 in
21:39 65.1 °F 56.2 °F 29.89 in SW 2.0 mph 5.0 mph 73% 0.00 in
21:44 65.1 °F 56.2 °F 29.90 in SW 3.0 mph 6.0 mph 73% 0.00 in
21:49 65.0 °F 56.1 °F 29.90 in SW 3.0 mph 6.0 mph 73% 0.00 in
21:54 65.0 °F 56.1 °F 29.90 in SW 3.0 mph 6.0 mph 73% 0.00 in
21:59 65.0 °F 56.5 °F 29.90 in SW 3.0 mph 7.0 mph 74% 0.00 in
22:04 64.7 °F 56.2 °F 29.91 in WSW 1.0 mph 4.0 mph 74% 0.00 in
22:09 64.8 °F 56.7 °F 29.91 in SW 3.0 mph 6.0 mph 75% 0.00 in
22:14 65.1 °F 56.6 °F 29.91 in WSW 3.0 mph 5.0 mph 74% 0.00 in
22:19 65.2 °F 56.7 °F 29.91 in WSW 1.0 mph 6.0 mph 74% 0.00 in
22:24 65.4 °F 56.9 °F 29.91 in SW 2.0 mph 7.0 mph 74% 0.00 in
22:29 65.6 °F 57.1 °F 29.91 in SW 3.0 mph 7.0 mph 74% 0.00 in
22:34 65.7 °F 57.2 °F 29.91 in SW 3.0 mph 7.0 mph 74% 0.00 in
22:39 65.7 °F 57.6 °F 29.91 in SW 3.0 mph 6.0 mph 75% 0.00 in
22:44 65.9 °F 58.1 °F 29.91 in SW 7.0 mph 9.0 mph 76% 0.00 in
22:49 66.0 °F 58.2 °F 29.91 in WSW 4.0 mph 8.0 mph 76% 0.00 in
22:54 66.0 °F 58.6 °F 29.91 in SW 3.0 mph 8.0 mph 77% 0.00 in
22:59 66.0 °F 58.6 °F 29.91 in SW 3.0 mph 11.0 mph 77% 0.00 in
23:04 66.0 °F 56.7 °F 29.91 in SW 5.0 mph 15.0 mph 72% 0.00 in
23:09 66.1 °F 56.4 °F 29.91 in WSW 6.0 mph 15.0 mph 71% 0.00 in
23:14 65.9 °F 56.6 °F 29.91 in WSW 2.0 mph 6.0 mph 72% 0.00 in
23:19 65.7 °F 56.8 °F 29.92 in South 6.0 mph 7.0 mph 73% 0.00 in
23:24 65.5 °F 56.2 °F 29.91 in SW 3.0 mph 9.0 mph 72% 0.00 in
23:29 65.3 °F 56.4 °F 29.92 in SW 1.0 mph 5.0 mph 73% 0.00 in
23:34 65.3 °F 56.4 °F 29.92 in WSW 3.0 mph 6.0 mph 73% 0.00 in
23:39 65.4 °F 56.5 °F 29.92 in SW 2.0 mph 7.0 mph 73% 0.00 in
23:44 65.3 °F 56.8 °F 29.92 in SW 1.0 mph 3.0 mph 74% 0.00 in
23:49 65.3 °F 56.8 °F 29.91 in SW 1.0 mph 3.0 mph 74% 0.00 in
23:54 65.3 °F 56.4 °F 29.91 in SW 1.0 mph 3.0 mph 73% 0.00 in
23:59 65.2 °F 56.3 °F 29.91 in SW 1.0 mph 2.0 mph 73% 0.00 in
Buffalo, New York, USA
Compliments of Weather Underground - 2.5 mb